Linden, NJ

8:48 AM EDT on July 29, 2016 (GMT -0400)
Linden

Weather History for KLDJ - July, 2013

Change the Weather History Date:

Saturday, July 20, 2013

  Actual Average (KEWR) Record (KEWR)
Temperature  
Mean Temperature 84 °F 78 °F  
Max Temperature 91 °F 86 °F 101 °F (1980)
Min Temperature 78 °F 69 °F 59 °F (1997)
Degree Days  
Heating Degree Days 0 0  
Month to date heating degree days 0  
Since 1 June heating degree days 17  
Since 1 July heating degree days 0  
Cooling Degree Days 20 13  
Month to date cooling degree days 248  
Year to date cooling degree days 563  
Since 1 June cooling degree days 487  
Growing Degree Days 34 (Base 50)    
Moisture  
Dew Point 72 °F    
Average Humidity 68    
Maximum Humidity 87    
Minimum Humidity 50    
Precipitation  
Precipitation 0.07 in 0.15 in 3.15 in (1961)
Month to date precipitation 2.94  
Year to date precipitation 25.85  
Snow  
Snow 0.00 in 0.00 in 0.00 in (2002)
Month to date snowfall 0.0  
Since 1 July snowfall 0.0  
Snow Depth -    
Sea Level Pressure  
Sea Level Pressure 29.81 in    
Wind  
Wind Speed 6 mph (WSW)    
Max Wind Speed 14 mph    
Max Gust Speed 22 mph    
Visibility 10 miles    
Events Rain , Thunderstorm    
T = Trace of Precipitation, MM = Missing Value Source: NWS Daily Summary

Daily Weather History Graph

Daily Weather History Graph

Search for Another Location

Airport or City:

Trip Planner

Search our weather history database for the weather conditions in past years. The results will help you decide how hot, cold, wet, or windy it might be!

Date:

Astronomy

Jul. 20, 2013 Rise Set
Actual Time 5:43 AM EDT 8:23 PM EDT
Civil Twilight 5:11 AM EDT 8:54 PM EDT
Nautical Twilight 4:31 AM EDT 9:34 PM EDT
Astronomical Twilight 3:46 AM EDT 10:19 PM EDT
Moon 6:23 PM EDT (7/20) 3:20 AM EDT (7/20)
Length of Visible Light 15h 43m
Length of Day
14h 39m
Waxing Gibbous, 93% of the Moon is Illuminated
Jul 20
Waxing Gibbous
Jul 22
Full
Jul 29
Last Quarter
Aug 6
New
Aug 14
First Quarter

Hourly Weather History & Observations

Time (EDT) Temp. Heat Index Dew Point Humidity Pressure Visibility Wind Dir Wind Speed Gust Speed Precip Events Conditions
12:15 AM 88.2 °F 98.0 °F 74.8 °F 65% 29.81 in 10.0 mi WSW 4.6 mph - N/A   Clear
12:35 AM 87.8 °F 97.6 °F 75.2 °F 66% 29.82 in 10.0 mi WSW 5.8 mph - N/A   Clear
12:55 AM 87.4 °F 96.7 °F 75.0 °F 66% 29.83 in 10.0 mi West 6.9 mph - N/A   Clear
1:15 AM 86.5 °F 96.4 °F 75.6 °F 70% 29.83 in 10.0 mi West 8.1 mph - N/A   Clear
1:35 AM 85.6 °F 95.0 °F 75.7 °F 72% 29.83 in 10.0 mi West 6.9 mph - N/A   Clear
1:55 AM 85.1 °F 94.5 °F 76.1 °F 74% 29.83 in 10.0 mi West 6.9 mph - N/A   Clear
2:15 AM 84.6 °F 92.4 °F 74.5 °F 72% 29.83 in 10.0 mi West 10.4 mph 16.1 mph N/A   Clear
2:35 AM 84.2 °F 90.3 °F 72.5 °F 68% 29.82 in 10.0 mi West 6.9 mph - N/A   Clear
2:55 AM 83.8 °F 88.6 °F 71.1 °F 65% 29.81 in 10.0 mi West 6.9 mph - N/A   Clear
3:15 AM 83.3 °F 87.9 °F 70.7 °F 66% 29.80 in 10.0 mi WSW 5.8 mph - N/A   Clear
3:35 AM 82.8 °F 86.9 °F 70.3 °F 66% 29.81 in 10.0 mi West 8.1 mph - N/A   Clear
3:55 AM 82.4 °F 86.3 °F 70.2 °F 66% 29.80 in 10.0 mi West 6.9 mph - N/A   Clear
4:15 AM 82.4 °F 86.3 °F 69.8 °F 66% 29.79 in 10.0 mi WSW 5.8 mph - N/A   Clear
4:35 AM 81.7 °F 85.2 °F 69.8 °F 67% 29.79 in 10.0 mi WSW 4.6 mph - N/A   Clear
4:55 AM 81.5 °F 85.5 °F 70.7 °F 70% 29.79 in 10.0 mi WSW 4.6 mph - N/A   Clear
5:15 AM 81.3 °F 85.0 °F 70.2 °F 69% 29.79 in 10.0 mi WSW 5.8 mph - N/A   Clear
5:35 AM 81.5 °F 84.9 °F 69.6 °F 67% 29.80 in 10.0 mi West 5.8 mph - N/A   Clear
5:55 AM 81.5 °F 84.8 °F 69.1 °F 66% 29.81 in 10.0 mi WSW 9.2 mph - N/A   Clear
6:15 AM 81.7 °F 84.9 °F 68.9 °F 65% 29.81 in 10.0 mi West 9.2 mph - N/A   Clear
6:35 AM 81.5 °F 84.6 °F 68.9 °F 65% 29.81 in 10.0 mi West 9.2 mph - N/A   Clear
6:55 AM 81.1 °F 84.4 °F 69.1 °F 67% 29.81 in 10.0 mi West 8.1 mph - N/A   Clear
7:15 AM 81.1 °F 84.4 °F 69.3 °F 67% 29.82 in 10.0 mi West 5.8 mph - N/A   Clear
7:35 AM 81.5 °F 84.9 °F 69.4 °F 67% 29.82 in 10.0 mi West 6.9 mph - N/A   Clear
7:55 AM 81.7 °F 85.2 °F 69.8 °F 67% 29.83 in 10.0 mi WSW 5.8 mph - N/A   Clear
8:15 AM 81.9 °F 85.6 °F 69.8 °F 67% 29.83 in 10.0 mi West 3.5 mph - N/A   Clear
8:35 AM 82.2 °F 86.0 °F 69.8 °F 66% 29.82 in 10.0 mi WSW 6.9 mph - N/A   Clear
8:55 AM 83.3 °F 87.4 °F 69.8 °F 64% 29.81 in 10.0 mi WSW 8.1 mph - N/A   Clear
9:15 AM 84.4 °F 88.7 °F 70.0 °F 62% 29.81 in 10.0 mi WSW 9.2 mph - N/A   Clear
9:35 AM 84.4 °F 88.7 °F 70.2 °F 62% 29.81 in 10.0 mi West 9.2 mph - N/A   Clear
9:55 AM 85.3 °F 89.8 °F 70.0 °F 60% 29.81 in 10.0 mi West 5.8 mph - N/A   Clear
10:15 AM 85.1 °F 89.4 °F 69.8 °F 60% 29.81 in 10.0 mi West 11.5 mph 18.4 mph N/A   Clear
10:35 AM 85.8 °F 90.4 °F 70.0 °F 59% 29.81 in 10.0 mi West 12.7 mph - N/A   Clear
10:55 AM 86.2 °F 91.1 °F 70.3 °F 59% 29.81 in 10.0 mi West 9.2 mph 17.3 mph N/A   Clear
11:15 AM 88.5 °F 94.4 °F 71.1 °F 56% 29.80 in 10.0 mi West 13.8 mph 18.4 mph N/A   Clear
11:35 AM 89.2 °F 94.9 °F 70.7 °F 54% 29.79 in 10.0 mi WSW 9.2 mph - N/A   Clear
11:55 AM 89.8 °F 95.6 °F 70.7 °F 53% 29.79 in 10.0 mi WSW 12.7 mph 17.3 mph N/A   Clear
12:15 PM 91.0 °F 97.1 °F 70.5 °F 51% 29.78 in 10.0 mi West 12.7 mph 21.9 mph N/A   Clear
12:35 PM 90.3 °F 95.7 °F 70.2 °F 51% 29.78 in 10.0 mi West 11.5 mph 16.1 mph N/A   Clear
12:55 PM 91.4 °F 97.8 °F 70.9 °F 51% 29.76 in 10.0 mi SW 5.8 mph - N/A   Clear
1:15 PM 91.9 °F 98.4 °F 71.1 °F 50% 29.75 in 10.0 mi SW 9.2 mph 17.3 mph N/A   Unknown
6:35 PM - - - N/A% 29.75 in - NNW 8.1 mph - 0.02 in Thunderstorm Thunderstorm
6:55 PM 83.3 °F 89.9 °F 73.9 °F 73% 29.76 in 7.0 mi Calm Calm - 0.02 in Rain , Thunderstorm Light Thunderstorms and Rain
7:15 PM 83.8 °F 90.8 °F 73.9 °F 72% 29.78 in 10.0 mi South 3.5 mph - N/A Rain , Thunderstorm Light Thunderstorms and Rain
7:35 PM 79.7 °F - 73.0 °F 80% 29.77 in 5.0 mi Calm Calm - 0.02 in Rain , Thunderstorm Light Thunderstorms and Rain
7:55 PM 79.7 °F - 73.8 °F 82% 29.79 in 7.0 mi Calm Calm - 0.02 in   Clear
8:15 PM 79.5 °F - 73.6 °F 82% 29.80 in 7.0 mi Calm Calm - N/A   Mostly Cloudy
8:35 PM 79.7 °F - 73.4 °F 81% 29.80 in 10.0 mi Calm Calm - 0.01 in Rain Light Rain
8:55 PM 80.4 °F 85.0 °F 73.2 °F 79% 29.81 in 10.0 mi West 3.5 mph - 0.01 in   Mostly Cloudy
9:15 PM 79.3 °F - 72.1 °F 79% 29.82 in 7.0 mi WSW 5.8 mph - 0.01 in Rain Rain
9:35 PM 78.8 °F - 72.0 °F 79% 29.81 in 10.0 mi Calm Calm - 0.01 in   Mostly Cloudy
9:55 PM 79.0 °F - 72.5 °F 80% 29.82 in 10.0 mi Calm Calm - 0.01 in   Mostly Cloudy
10:15 PM 79.0 °F - 72.3 °F 80% 29.82 in 10.0 mi Calm Calm - 0.01 in Rain Rain
10:35 PM 78.8 °F - 73.2 °F 83% 29.82 in 10.0 mi WNW 3.5 mph - 0.01 in   Overcast
10:55 PM 78.8 °F - 73.4 °F 83% 29.83 in 10.0 mi Calm Calm - 0.01 in   Mostly Cloudy
11:15 PM 79.0 °F - 73.8 °F 84% 29.83 in 10.0 mi Calm Calm - N/A   Mostly Cloudy
11:35 PM 78.8 °F - 73.8 °F 84% 29.84 in 10.0 mi Calm Calm - N/A   Mostly Cloudy
11:55 PM 78.8 °F - 74.5 °F 87% 29.84 in 10.0 mi Calm Calm - N/A   Mostly Cloudy